sat.trackr.live / text

‹ back to catalog

STARLINK-4573

NORAD 53623 · 2022-104AM

PAYLOAD ACTIVE UNKNOWN

§ Identity

Operator
Country
US
Launch date
2022-08-28
Launch site
AFETR
Launch vehicle
Mass (kg)
RCS (m²)

Purposes: comms

External: N2YO · Heavens-Above · Gunter

§ Orbital elements

Epoch: 2026-09-20T23:24:29.020896Z

Period
94.01 min
Inclination
53.1608°
Eccentricity
0.0001626
Mean motion
15.31699760 rev/d
Perigee alt
469.6 km
Apogee alt
471.9 km
Semi-major
6,848.9 km
B*
3.4102e-6
RAAN
61.5635°
Arg perigee
116.8940°
Mean anomaly
243.2228°
Rev number
22,544

§ Raw data

STARLINK-45731 53623U 22104AM  26263.97533589 -.00000260  00000+0  34102-5 0  99992 53623  53.1608  61.5635 0001626 116.8940 243.2228 15.31699760225441

JSON: /api/v1/satellites/53623 · /tle

For live sub-satellite position, see the globe view (requires WebGL).

§ Visibility from observer

Set your observer location to see the next 7 days of passes ≥ 10°. The values pass through the URL so the page stays shareable.

No JS? Fill the form by hand. The geolocation button needs JavaScript.